#timestamp,LO_Frequency,Hit,StdDev 
1542164415.2,286047002.2,N
1542164435.9,286047002.5,N
1542164455.7,286047002.7,N
1542164475.6,286047002.4,N
1542164495.4,286047002.7,N
1542164515.2,286047002.6,N
1542164535.1,286047002.4,N
1542164536.0,286047002.4,N
1542164555.8,286047000.0,N
1542164575.7,286046999.9,N
1542164595.5,286047000.6,N
1542164615.3,286047000.1,N
1542164635.2,286047000.1,N
1542164655.9,286047002.5,N
1542164675.7,286047002.2,N
1542164695.6,286047002.6,N
1542164715.4,286046999.9,N
1542164735.3,286047002.8,N
1542164755.1,286047002.7,N
1542164756.0,286047002.7,N
1542164775.8,286047002.0,N
1542164795.7,286047002.1,N
1542164815.5,286047002.1,N
1542164835.3,286047002.3,N
1542164855.2,286046999.8,N
1542164875.0,286047000.0,N
1542164875.9,286047000.0,N
1542164895.8,286047000.9,N
1542164915.6,286046999.7,N
1542164935.4,286047000.7,N
1542164955.3,286046999.7,N
1542164975.1,286047002.2,N
1542164995.8,286047002.6,N
1542165015.7,286047002.1,N
1542165035.5,286047001.7,N
1542165055.4,286047003.8,Y
1542165075.2,286047002.1,P
1542165095.1,286046999.9,N
1542165096.0,286046999.9,N
1542165115.8,286047000.8,N
1542165135.6,286046998.2,N
1542165155.5,286046998.2,N
1542165175.3,286046998.8,N
1542165195.1,286046996.9,N
1542165215.9,286046999.2,N
1542165235.7,286046999.6,N
1542165255.6,286046997.1,N
1542165275.4,286046997.7,N
1542165295.2,286046997.9,N
1542165315.1,286046999.5,N
1542165316.0,286046999.5,N
1542165335.8,286046996.6,N
1542165355.6,286046999.4,N
1542165375.5,286046998.9,N
1542165395.3,286046998.5,N
1542165415.1,286046999.0,N
1542165435.9,286046996.7,N
1542165455.7,286046997.4,N
1542165475.6,286046997.4,N
1542165495.4,286046995.1,Y
1542165515.2,286046996.8,P
1542165535.1,286046996.6,P
1542165536.0,286046996.6,P
1542165555.8,286046996.7,Y
1542165575.7,286047000.7,P
1542165595.5,286047000.8,N
1542165615.3,286046999.0,N
1542165635.2,286046999.5,N
1542165655.9,286046999.2,N
1542165675.7,286047001.2,N
1542165695.6,286047002.7,N
1542165715.4,286047002.6,N
1542165735.2,286047001.6,N
1542165755.1,286047002.2,N
1542165756.0,286047002.2,N
1542165775.8,286047002.4,N
1542165795.7,286046998.2,N
1542165815.5,286046998.7,N
1542165835.3,286046998.7,N
1542165855.2,286046999.0,N
1542165875.0,286046998.2,N
1542165875.9,286046998.2,N
1542165895.8,286046998.9,N
1542165915.6,286046996.5,N
1542165935.4,286046997.6,N
1542165955.3,286046995.8,N
1542165975.1,286046996.4,N
1542165995.9,286046994.1,N
1542166015.7,286046993.6,N
1542166035.5,286046993.6,N
1542166055.4,286046994.9,N
1542166075.2,286046996.7,N
1542166095.1,286046999.6,N
1542166096.0,286046999.6,N
1542166115.8,286046996.7,N
1542166135.6,286046994.9,N
1542166155.5,286046997.9,N
1542166175.3,286046997.6,N
1542166195.2,286046996.4,N
1542166215.9,286046995.3,N
1542166235.7,286046995.1,N
1542166255.6,286046995.3,N
1542166275.4,286046995.0,N
1542166295.2,286046995.8,N
1542166315.1,286046997.5,N
1542166316.0,286046997.5,N
1542166335.8,286046995.2,N
1542166355.7,286046995.3,N
1542166375.5,286046993.8,Y
1542166395.3,286046997.8,P
1542166415.2,286046997.9,P
1542166435.0,286046997.8,P
1542166435.9,286046997.8,Y
1542166455.8,286047001.2,P
1542166475.6,286047000.5,N
1542166495.4,286047000.6,N
1542166515.3,286047000.6,N
1542166535.1,286047001.0,N
1542166555.8,286046999.3,N
1542166575.7,286046998.4,N
1542166595.5,286047001.1,N
1542166615.4,286046999.1,N
1542166635.2,286047000.8,N
1542166655.0,286046998.6,N
1542166655.9,286046998.6,N
1542166675.8,286046998.6,N
1542166695.6,286046999.3,N
1542166715.4,286047001.1,N
1542166735.3,286046998.3,N
1542166755.1,286046998.7,N
1542166775.9,286047001.2,N
1542166795.7,286047000.6,N
1542166815.5,286047000.7,N
1542166835.4,286047000.1,N
1542166855.2,286046999.9,N
1542166875.0,286047000.9,N
1542166875.9,286047000.9,N
1542166895.8,286047000.8,N
1542166915.6,286047000.7,N
1542166935.5,286046999.2,N
1542166955.3,286046998.7,N
1542166975.1,286047000.9,N
1542166995.9,286047000.8,N
1542167015.7,286046998.3,N
1542167035.5,286046998.1,N
1542167055.4,286047000.5,N
1542167075.2,286047000.3,N
1542167095.1,286047000.8,N
1542167096.0,286047000.8,N
1542167115.8,286047001.1,N
1542167135.6,286046999.0,N
1542167155.5,286046998.5,N
1542167175.3,286046998.1,N
1542167195.1,286047000.5,N
1542167215.9,286047000.1,N
1542167235.7,286046998.6,N
1542167255.6,286046998.5,N
1542167275.4,286047001.2,N
1542167295.2,286047000.0,N
1542167315.1,286047000.0,N
1542167316.0,286047000.0,N
1542167335.8,286046999.7,N
1542167355.6,286047002.5,N
1542167375.5,286047000.2,N
1542167395.3,286047000.1,N
1542167415.2,286047000.3,N
1542167435.9,286047002.4,N
1542167455.7,286047002.2,N
1542167475.6,286047001.6,N
1542167495.4,286047002.6,N
1542167515.2,286047002.3,N
1542167535.1,286047002.7,N
1542167536.0,286047002.7,N
1542167555.8,286047002.3,N
1542167575.7,286046999.7,N
1542167595.5,286047002.0,N
1542167615.3,286047001.4,N
1542167635.2,286047004.0,N
1542167655.0,286047001.3,N
1542167655.9,286047001.3,N
1542167675.8,286047001.4,N
1542167695.6,286047004.1,N
1542167715.4,286047004.0,N
1542167735.3,286047004.3,N
1542167755.1,286047001.6,N
1542167775.8,286047001.8,N
1542167795.7,286047001.6,N
1542167815.5,286047002.2,N
1542167835.3,286047003.8,N
1542167855.2,286047003.9,N
1542167875.0,286047004.1,Y
1542167875.9,286047004.1,P
1542167895.8,286047002.5,N
1542167915.6,286046999.7,N
1542167935.4,286047000.1,N
1542167955.3,286047002.7,N
1542167975.1,286047000.8,N
1542167995.9,286047000.2,N
